Canon City Fremont County, CO

12:31 AM MDT on March 28, 2017 (GMT -0600)
Canon City Fremont County

Weather History for K1V6 - May, 2014

Change the Weather History Date:

Friday, May 16, 2014

  Actual Average (KFCS) Record (KFCS)
Temperature  
Mean Temperature 56 °F -  
Max Temperature 69 °F 68 °F 85 °F (1988)
Min Temperature 44 °F 44 °F 33 °F (2011)
Degree Days  
Heating Degree Days 8    
Growing Degree Days 6 (Base 50)    
Moisture  
Dew Point 41 °F    
Average Humidity 64    
Maximum Humidity 94    
Minimum Humidity 35    
Precipitation  
Precipitation 0.05 in - - ()
Sea Level Pressure  
Sea Level Pressure 30.13 in    
Wind  
Wind Speed 11 mph (NE)    
Max Wind Speed 20 mph    
Max Gust Speed 29 mph    
Visibility 10 miles    
Events Rain    
Averages and records for this station are not official NWS values.
T = Trace of Precipitation, MM = Missing Value Source: NWS Daily Summary

Daily Weather History Graph

Daily Weather History Graph

Search for Another Location

Airport or City:

Trip Planner

Search our weather history database for the weather conditions in past years. The results will help you decide how hot, cold, wet, or windy it might be!

Date:

Astronomy

May. 16, 2014 Rise Set
Actual Time 5:48 AM MDT 8:05 PM MDT
Civil Twilight 5:18 AM MDT 8:35 PM MDT
Nautical Twilight 4:41 AM MDT 9:12 PM MDT
Astronomical Twilight 4:01 AM MDT 9:53 PM MDT
Moon 10:15 PM MDT (5/16) 7:32 AM MDT (5/16)
Length of Visible Light 15h 17m
Length of Day
14h 17m
Waning Gibbous, 95% of the Moon is Illuminated
May 16
Waning Gibbous
May 21
Last Quarter
May 28
New
Jun 5
First Quarter
Jun 12
Full

Hourly Weather History & Observations

Time (MDT) Temp. Windchill Dew Point Humidity Pressure Visibility Wind Dir Wind Speed Gust Speed Precip Events Conditions
12:10 AM 50.0 °F - 37.4 °F 62% 30.20 in 10.0 mi North 10.4 mph - N/A   Clear
12:30 AM 50.0 °F - 37.4 °F 62% 30.20 in 10.0 mi NNW 11.5 mph - N/A   Clear
12:50 AM 50.0 °F - 37.4 °F 62% 30.19 in 10.0 mi NNW 9.2 mph - N/A   Clear
1:10 AM 46.4 °F 42.9 °F 37.4 °F 71% 30.18 in 10.0 mi WNW 6.9 mph - N/A   Clear
1:30 AM 46.4 °F 42.9 °F 37.4 °F 71% 30.18 in 10.0 mi WNW 6.9 mph - N/A   Clear
1:50 AM 44.6 °F 40.2 °F 37.4 °F 76% 30.16 in 10.0 mi WNW 8.1 mph - N/A   Clear
2:10 AM 44.6 °F 38.1 °F 37.4 °F 76% 30.15 in 10.0 mi WNW 13.8 mph - N/A   Clear
2:30 AM 44.6 °F 40.2 °F 37.4 °F 76% 30.14 in 10.0 mi WNW 8.1 mph - N/A   Clear
2:50 AM 46.4 °F 40.1 °F 35.6 °F 66% 30.14 in 10.0 mi WNW 15.0 mph - N/A   Clear
3:10 AM 44.6 °F 38.4 °F 35.6 °F 71% 30.12 in 10.0 mi WNW 12.7 mph - N/A   Clear
3:30 AM 44.6 °F 42.2 °F 35.6 °F 71% 30.12 in 10.0 mi West 4.6 mph - N/A   Clear
3:50 AM 46.4 °F 41.5 °F 35.6 °F 66% 30.11 in 10.0 mi WNW 10.4 mph - N/A   Clear
4:10 AM 46.4 °F 40.1 °F 35.6 °F 66% 30.11 in 10.0 mi WNW 15.0 mph - N/A   Clear
4:30 AM 46.4 °F 40.7 °F 35.6 °F 66% 30.11 in 10.0 mi WNW 12.7 mph - N/A   Clear
4:50 AM 50.0 °F - 33.8 °F 54% 30.10 in 10.0 mi WNW 13.8 mph - N/A   Clear
5:10 AM 46.4 °F 40.7 °F 33.8 °F 62% 30.10 in 10.0 mi WNW 12.7 mph - N/A   Clear
5:30 AM 48.2 °F - 33.8 °F 58% 30.10 in 10.0 mi WNW 12.7 mph - N/A   Clear
5:50 AM 48.2 °F - 33.8 °F 58% 30.10 in 10.0 mi WNW 13.8 mph - N/A   Clear
6:10 AM 46.4 °F 40.7 °F 33.8 °F 62% 30.10 in 10.0 mi WNW 12.7 mph - N/A   Clear
6:25 AM 48.2 °F - 33.8 °F 58% 30.10 in 10.0 mi WNW 13.8 mph - N/A   Clear
3:50 PM 69.8 °F - 41.0 °F 35% 30.00 in 10.0 mi NE 17.3 mph 27.6 mph N/A   Scattered Clouds
4:10 PM 68.0 °F - 41.0 °F 37% 30.03 in 10.0 mi East 18.4 mph 27.6 mph N/A   Mostly Cloudy
4:30 PM 68.0 °F - 41.0 °F 37% 30.03 in 10.0 mi East 19.6 mph 28.8 mph N/A   Mostly Cloudy
4:50 PM 68.0 °F - 41.0 °F 37% 30.05 in 10.0 mi East 15.0 mph 21.9 mph N/A   Mostly Cloudy
5:10 PM 66.2 °F - 42.8 °F 43% 30.06 in 10.0 mi ENE 16.1 mph 26.5 mph N/A   Overcast
5:30 PM 62.6 °F - 46.4 °F 55% 30.06 in 10.0 mi ENE 16.1 mph 20.7 mph N/A   Mostly Cloudy
5:50 PM 62.6 °F - 44.6 °F 52% 30.07 in 10.0 mi ENE 17.3 mph 23.0 mph N/A   Overcast
6:10 PM 62.6 °F - 42.8 °F 48% 30.09 in 10.0 mi ENE 12.7 mph 20.7 mph N/A   Overcast
6:30 PM 62.6 °F - 42.8 °F 48% 30.09 in 10.0 mi ENE 13.8 mph 21.9 mph N/A   Overcast
6:50 PM 60.8 °F - 44.6 °F 55% 30.10 in 10.0 mi East 10.4 mph 18.4 mph N/A   Scattered Clouds
7:10 PM 60.8 °F - 42.8 °F 52% 30.12 in 10.0 mi East 5.8 mph - N/A   Mostly Cloudy
7:30 PM 60.8 °F - 42.8 °F 52% 30.12 in 10.0 mi ESE 8.1 mph - N/A   Overcast
7:50 PM 59.0 °F - 42.8 °F 55% 30.14 in 10.0 mi SE 10.4 mph - N/A   Overcast
8:10 PM 59.0 °F - 42.8 °F 55% 30.14 in 10.0 mi ESE 9.2 mph - N/A   Overcast
8:30 PM 59.0 °F - 44.6 °F 59% 30.16 in 10.0 mi ESE 8.1 mph - N/A Rain Light Rain
8:50 PM 55.4 °F - 46.4 °F 72% 30.17 in 10.0 mi East 6.9 mph - N/A   Drizzle
9:10 PM 55.4 °F - 48.2 °F 77% 30.18 in 10.0 mi ESE 8.1 mph - N/A Rain Light Rain
9:30 PM 51.8 °F - 50.0 °F 94% 30.19 in 7.0 mi East 8.1 mph - 0.04 in Rain Light Rain
9:50 PM 51.8 °F - 46.4 °F 82% 30.20 in 10.0 mi East 6.9 mph - 0.04 in Rain Light Rain
10:10 PM 51.8 °F - 46.4 °F 82% 30.20 in 10.0 mi ESE 5.8 mph - N/A Rain Light Rain
10:30 PM 51.8 °F - 46.4 °F 82% 30.20 in 10.0 mi ESE 6.9 mph - 0.01 in   Light Drizzle
10:50 PM 50.0 °F - 48.2 °F 94% 30.20 in 10.0 mi ESE 4.6 mph - 0.01 in   Overcast
11:10 PM 50.0 °F - 48.2 °F 94% 30.18 in 10.0 mi East 4.6 mph - N/A   Overcast
11:30 PM 50.0 °F - 46.4 °F 87% 30.18 in 10.0 mi East 3.5 mph - N/A   Overcast
11:50 PM 50.0 °F - 46.4 °F 87% 30.19 in 10.0 mi ENE 3.5 mph - N/A   Overcast